AB2HM Weather Reports


time (UTC)temp
F
wind
direction
speed
knots
gust
knots
rain 1hr
in
rain 24hr
in
rain mn
in
humidity
%
barometer
mb
20260504141155 64 191 0.0 2.6 0.00 0.00 0.00 50 1015.2
20260504081113 50 130 0.0 0.0 0.00 0.00 0.00 68 1016.2
20260504043938 51 130 0.0 0.0 0.00 0.00 0.00 60 1015.8
20260504040926 51 130 0.0 0.0 0.00 0.00 0.00 59 1015.5
20260504033917 51 130 0.0 0.0 0.00 0.00 0.00 59 1015.2
20260504030913 51 130 0.0 0.0 0.00 0.00 0.00 57 1015.1
20260504023913 51 130 0.0 0.0 0.00 0.00 0.00 55 1015.2
20260504020906 51 130 0.0 0.0 0.00 0.00 0.00 55 1015.2
20260504013902 53 130 0.0 0.0 0.00 0.00 0.00 50 1015.0
20260504010902 56 130 0.0 0.0 0.00 0.00 0.00 46 1014.7
20260504003900 58 130 0.0 0.0 0.00 0.00 0.00 41 1014.4
20260504000822 60 130 0.0 0.0 0.00 0.00 0.00 36 1014.0
20260503233820 61 130 0.0 2.6 0.00 0.00 0.00 34 1013.9
20260503230814 61 130 0.0 3.5 0.00 0.00 0.00 32 1013.6
20260503223810 62 143 0.0 0.9 0.00 0.00 0.00 31 1013.5
20260503220805 63 143 0.0 0.9 0.00 0.00 0.00 30 1013.4
20260503213801 63 143 0.0 3.5 0.00 0.00 0.00 30 1013.5
20260503210757 64 188 0.0 3.5 0.00 0.00 0.00 29 1013.4
20260503203751 63 184 0.0 9.6 0.00 0.00 0.00 30 1013.5
20260503200743 63 358 0.0 3.5 0.00 0.00 0.00 31 1013.7
20260503193740 63 358 0.0 3.5 0.00 0.00 0.00 30 1013.8
20260503190735 62 49 0.0 2.6 0.00 0.00 0.00 29 1014.1
20260503183736 62 54 0.0 8.7 0.00 0.00 0.00 32 1014.3
20260503180732 60 40 0.0 3.5 0.00 0.00 0.00 34 1014.5
20260503173730 59 358 0.9 4.3 0.00 0.00 0.00 35 1014.7
20260503170720 59 180 0.0 4.3 0.00 0.00 0.00 37 1014.8